period_start,C,m1,H,J0,J1,J2,J3,J4,J5,JA,JB,JC,JD,JJ,JK,JN,#
2016-12-16 00:04:40,0.06,12.07,0.00,20.54,25.57,29.38,14.81,54.48,1016.58,2029.08,1096.98,1293.96,1447.20,599.78,600.83,43.28,0000 0000 0000 0000 000000
2016-12-16 00:09:42,0.17,12.07,0.00,20.55,25.57,29.40,14.83,54.39,1016.58,2029.04,1096.27,1293.25,1446.95,600.05,601.01,43.33,0000 0000 0000 0000 000000
2016-12-16 00:14:43,0.07,12.08,0.00,20.54,25.57,29.41,14.83,54.39,1016.53,2029.07,1095.95,1293.00,1446.17,600.02,600.96,43.38,0000 0000 0000 0000 000000
2016-12-16 00:19:44,0.17,12.09,0.00,20.52,25.55,29.38,14.88,54.37,1016.37,2029.15,1095.16,1292.62,1445.97,600.20,601.14,43.43,0000 0000 0000 0000 000000
2016-12-16 00:24:46,0.11,12.10,0.00,20.56,25.55,29.40,14.79,54.34,1016.20,2029.22,1094.85,1292.02,1445.19,599.60,600.36,43.48,0000 0000 0000 0000 000000
2016-12-16 00:29:47,0.12,12.10,0.00,20.59,25.55,29.37,14.79,54.32,1016.18,2029.22,1094.07,1291.82,1444.95,599.86,600.58,43.53,0000 0000 0000 0000 000000
2016-12-16 00:34:49,0.15,12.11,0.00,20.55,25.55,29.35,14.79,54.26,1016.30,2029.15,1093.74,1291.07,1444.22,599.91,600.74,43.58,0000 0000 0000 0000 000000
2016-12-16 00:39:50,0.06,12.11,0.00,20.55,25.55,29.36,14.86,54.28,1016.40,2029.08,1093.02,1290.96,1443.96,599.88,600.76,43.63,0000 0000 0000 0000 000000
2016-12-16 00:44:51,0.22,12.12,0.00,20.58,25.55,29.37,14.82,54.30,1016.36,2029.09,1092.57,1290.23,1443.18,600.34,601.14,43.68,0000 0000 0000 0000 000000
2016-12-16 00:49:52,0.03,12.13,0.00,20.56,25.55,29.37,14.87,54.36,1016.26,2029.12,1092.01,1289.99,1442.97,600.33,601.10,43.73,0000 0000 0000 0000 000000
2016-12-16 00:54:54,0.19,12.13,0.00,20.56,25.55,29.39,14.85,54.48,1016.28,2029.07,1091.49,1289.56,1442.26,600.21,601.09,43.78,0000 0000 0000 0000 000000
2016-12-16 00:59:55,0.06,12.14,0.00,20.57,25.55,29.40,14.87,54.35,1016.28,2029.14,1091.00,1289.02,1442.00,599.93,600.75,43.83,0000 0000 0000 0000 000000
2016-12-16 01:04:56,0.17,12.14,0.00,20.56,25.54,29.40,14.81,54.33,1016.23,2029.30,1090.49,1288.95,1441.45,600.05,600.75,43.88,0000 0000 0000 0000 000000
2016-12-16 01:09:58,0.08,12.15,0.00,20.56,25.53,29.41,14.85,54.42,1016.20,2029.21,1090.00,1288.21,1440.99,599.83,600.59,43.93,0000 0000 0000 0000 000000
2016-12-16 01:14:59,0.13,12.16,0.00,20.59,25.52,29.38,14.87,54.37,1016.16,2029.24,1089.47,1288.00,1440.62,600.17,600.71,43.99,0000 0000 0000 0000 000000
2016-12-16 01:20:00,0.07,12.16,0.00,20.57,25.52,29.40,14.80,54.24,1016.15,2029.14,1089.00,1287.62,1440.03,599.89,600.72,44.04,0000 0000 0000 0000 000000
2016-12-16 01:25:01,0.16,12.17,0.00,20.58,25.52,29.38,14.80,54.27,1016.14,2029.27,1088.48,1287.03,1439.86,600.21,600.81,44.09,0000 0000 0000 0000 000000
2016-12-16 01:30:02,0.06,12.17,0.00,20.60,25.52,29.38,14.89,54.33,1016.14,2029.26,1088.00,1286.95,1439.07,600.31,600.95,44.14,0000 0000 0000 0000 000000
2016-12-16 01:35:03,0.15,12.18,0.00,20.62,25.52,29.40,14.84,54.35,1016.13,2029.16,1087.45,1286.22,1438.88,600.15,600.58,44.19,0000 0000 0000 0000 000000
2016-12-16 01:40:04,0.07,12.19,0.00,20.60,25.52,29.45,14.78,54.33,1016.13,2029.13,1087.01,1286.00,1438.10,599.88,600.50,44.24,0000 0000 0000 0000 000000
2016-12-16 01:45:06,0.06,12.19,0.00,20.59,25.52,29.43,14.84,54.45,1016.13,2029.25,1086.89,1285.79,1437.98,600.13,600.76,44.29,0000 0000 0000 0000 000000
2016-12-16 01:50:07,0.19,12.20,0.00,20.55,25.52,29.43,14.83,54.45,1016.13,2029.21,1086.08,1285.07,1437.32,599.86,600.62,44.34,0000 0000 0000 0000 000000
2016-12-16 01:55:08,0.03,12.20,0.00,20.58,25.52,29.40,14.84,54.37,1016.11,2029.37,1085.96,1284.99,1437.00,600.35,601.09,44.39,0000 0000 0000 0000 000000
2016-12-16 02:00:09,0.17,12.21,0.00,20.58,25.52,29.40,14.78,54.48,1016.13,2029.19,1085.18,1284.50,1436.69,599.76,600.39,44.44,0000 0000 0000 0000 000000
2016-12-16 02:05:11,0.07,12.21,0.00,20.55,25.51,29.40,14.86,54.44,1016.13,2029.24,1084.99,1284.01,1436.04,600.07,600.75,44.49,0000 0000 0000 0000 000000
2016-12-16 02:10:12,0.13,12.22,0.00,20.57,25.50,29.34,14.83,54.33,1016.05,2029.36,1084.31,1283.96,1435.94,600.11,600.77,44.54,0000 0000 0000 0000 000000
2016-12-16 02:15:13,0.10,12.23,0.00,20.54,25.50,29.35,14.79,54.33,1015.74,2029.28,1084.00,1283.30,1435.17,599.86,600.50,44.59,0000 0000 0000 0000 000000
2016-12-16 02:20:15,0.10,12.23,0.00,20.55,25.50,29.35,14.81,54.37,1015.67,2029.35,1083.48,1283.00,1434.99,599.90,600.43,44.64,0000 0000 0000 0000 000000
2016-12-16 02:25:16,0.08,12.23,0.00,20.60,25.50,29.35,14.84,54.39,1015.68,2029.29,1083.00,1282.86,1434.45,599.95,600.37,44.69,0000 0000 0000 0000 000000
2016-12-16 02:30:18,0.15,12.24,0.00,20.56,25.50,29.30,14.76,54.47,1015.66,2029.43,1082.65,1282.14,1434.01,599.91,600.45,44.74,0000 0000 0000 0000 000000
2016-12-16 02:35:19,0.08,12.25,0.00,20.59,25.50,29.37,14.84,54.42,1015.67,2029.54,1082.04,1282.00,1433.84,600.16,600.46,44.79,0000 0000 0000 0000 000000
2016-12-16 02:40:20,0.06,12.25,0.00,20.59,25.50,29.34,14.82,54.30,1015.65,2029.34,1081.80,1281.74,1433.08,599.70,600.09,44.84,0000 0000 0000 0000 000000
2016-12-16 02:45:21,0.12,12.26,0.00,20.55,25.50,29.36,14.90,54.29,1015.64,2029.18,1081.06,1281.05,1432.99,600.31,600.71,44.90,0000 0000 0000 0000 000000
2016-12-16 02:50:22,0.05,12.26,0.00,20.57,25.50,29.39,14.81,54.42,1015.64,2029.22,1080.93,1281.00,1432.35,599.85,600.29,44.95,0000 0000 0000 0000 000000
2016-12-16 02:55:23,0.15,12.27,0.00,20.56,25.50,29.37,14.81,54.35,1015.64,2029.19,1080.17,1280.69,1432.00,599.81,600.20,45.00,0000 0000 0000 0000 000000
2016-12-16 03:00:25,0.09,12.27,0.00,20.53,25.50,29.36,14.88,54.30,1015.63,2029.40,1079.99,1280.06,1431.80,600.09,600.62,45.05,0000 0000 0000 0000 000000
2016-12-16 03:05:26,0.17,12.28,0.00,20.52,25.49,29.33,14.81,54.28,1015.60,2029.63,1079.44,1279.99,1431.11,599.72,600.18,45.10,0000 0000 0000 0000 000000
2016-12-16 03:10:27,0.09,12.28,0.00,20.52,25.48,29.40,14.85,54.42,1015.59,2029.59,1078.99,1279.60,1430.97,600.08,600.45,45.15,0000 0000 0000 0000 000000
2016-12-16 03:15:28,0.13,12.29,0.00,20.53,25.47,29.36,14.84,54.38,1015.60,2029.48,1078.61,1279.03,1430.37,600.13,600.55,45.20,0000 0000 0000 0000 000000
2016-12-16 03:20:30,0.04,12.29,0.00,20.52,25.47,29.33,14.78,54.35,1015.62,2029.45,1078.02,1278.99,1430.00,600.00,600.53,45.25,0000 0000 0000 0000 000000
2016-12-16 03:25:31,0.08,12.29,0.00,20.51,25.47,29.30,14.88,54.42,1015.62,2029.49,1077.83,1278.79,1429.80,600.09,600.54,45.30,0000 0000 0000 0000 000000
2016-12-16 03:30:32,0.19,12.31,0.00,20.48,25.47,29.33,14.83,54.37,1015.64,2029.66,1077.08,1278.10,1429.08,599.88,600.44,45.35,0000 0000 0000 0000 000000
2016-12-16 03:35:33,0.02,12.31,0.00,20.49,25.47,29.33,14.88,54.38,1015.64,2029.65,1076.96,1278.00,1428.98,600.08,600.68,45.40,0000 0000 0000 0000 000000
2016-12-16 03:40:34,0.16,12.31,0.00,20.46,25.46,29.36,14.83,54.38,1015.64,2029.65,1076.25,1277.78,1428.37,600.05,600.57,45.45,0000 0000 0000 0000 000000
2016-12-16 03:45:36,0.09,12.32,0.00,20.43,25.45,29.30,14.85,54.38,1015.64,2029.74,1076.00,1277.06,1428.01,600.17,600.89,45.50,0000 0000 0000 0000 000000
2016-12-16 03:50:37,0.10,12.32,0.00,20.46,25.45,29.30,14.83,54.31,1015.64,2029.80,1075.52,1277.00,1427.84,599.87,600.45,45.55,0000 0000 0000 0000 000000
2016-12-16 03:55:38,0.11,12.33,0.00,20.47,25.44,29.28,14.86,54.38,1015.63,2029.88,1075.01,1276.74,1427.10,600.15,600.76,45.60,0000 0000 0000 0000 000000
2016-12-16 04:00:39,0.11,12.34,0.00,20.44,25.43,29.30,14.89,54.38,1015.63,2029.94,1074.71,1276.05,1426.98,600.31,600.86,45.65,0000 0000 0000 0000 000000
2016-12-16 04:05:41,0.09,12.34,0.00,20.43,25.42,29.28,14.78,54.21,1015.60,2029.94,1074.02,1275.99,1426.40,599.94,600.60,45.70,0000 0000 0000 0000 000000
2016-12-16 04:10:42,0.06,12.35,0.00,20.43,25.42,29.30,14.76,54.14,1015.60,2029.98,1073.91,1275.76,1426.00,599.94,600.61,45.75,0000 0000 0000 0000 000000
2016-12-16 04:15:43,0.17,12.36,0.00,20.41,25.42,29.29,14.78,54.27,1015.58,2029.96,1073.12,1275.06,1425.78,599.92,600.55,45.80,0000 0000 0000 0000 000000
2016-12-16 04:20:44,0.04,12.36,0.00,20.43,25.41,29.26,14.79,54.25,1015.61,2029.98,1072.97,1274.99,1425.07,599.69,600.46,45.86,0000 0000 0000 0000 000000
2016-12-16 04:25:45,0.16,12.36,0.00,20.44,25.40,29.26,14.84,54.28,1015.63,2029.98,1072.31,1274.53,1424.98,600.15,600.85,45.91,0000 0000 0000 0000 000000
2016-12-16 04:30:47,0.08,12.37,0.00,20.39,25.40,29.27,14.82,54.24,1015.64,2029.98,1071.99,1274.01,1424.38,599.92,600.67,45.96,0000 0000 0000 0000 000000
2016-12-16 04:35:48,0.11,12.38,0.00,20.40,25.40,29.26,14.86,54.17,1015.63,2029.99,1071.39,1273.96,1424.00,599.93,600.61,46.01,0000 0000 0000 0000 000000
2016-12-16 04:40:49,0.13,12.38,0.00,20.41,25.40,29.25,14.83,54.37,1015.64,2029.98,1071.00,1273.21,1423.61,600.07,600.91,46.06,0000 0000 0000 0000 000000
2016-12-16 04:45:51,0.12,12.39,0.00,20.44,25.39,29.26,14.77,54.38,1015.64,2029.97,1070.32,1273.00,1423.03,599.75,600.40,46.11,0000 0000 0000 0000 000000
2016-12-16 04:50:52,0.06,12.39,0.00,20.42,25.38,29.24,14.82,54.39,1015.64,2029.99,1069.99,1272.74,1422.87,600.28,601.01,46.16,0000 0000 0000 0000 000000
2016-12-16 04:55:54,0.19,12.40,0.00,20.36,25.37,29.24,14.83,54.32,1015.64,2029.99,1069.43,1272.06,1422.09,599.71,600.51,46.21,0000 0000 0000 0000 000000
2016-12-16 05:00:55,0.02,12.41,0.00,20.41,25.37,29.23,14.77,54.30,1015.64,2029.99,1069.00,1272.00,1421.97,599.98,600.71,46.26,0000 0000 0000 0000 000000
2016-12-16 05:05:56,0.20,12.41,0.00,20.46,25.37,29.23,14.85,54.42,1015.64,2029.99,1068.50,1271.52,1421.24,600.31,600.92,46.31,0000 0000 0000 0000 000000
2016-12-16 05:10:58,0.05,12.42,0.00,20.47,25.37,29.25,14.79,54.38,1015.64,2029.99,1068.01,1271.01,1420.99,599.72,600.37,46.36,0000 0000 0000 0000 000000
2016-12-16 05:15:59,0.17,12.42,0.00,20.46,25.36,29.24,14.83,54.29,1015.64,2029.99,1067.51,1270.78,1420.39,599.83,600.45,46.41,0000 0000 0000 0000 000000
2016-12-16 05:21:00,0.08,12.43,0.00,20.43,25.35,29.21,14.83,54.38,1015.65,2029.99,1067.00,1270.07,1420.00,599.58,600.31,46.46,0000 0000 0000 0000 000000
2016-12-16 05:26:02,0.14,12.44,0.00,20.41,25.35,29.22,14.86,54.37,1015.65,2029.99,1066.43,1269.98,1419.47,599.74,600.59,46.51,0000 0000 0000 0000 000000
2016-12-16 05:31:03,0.11,12.44,0.00,20.40,25.35,29.18,14.85,54.29,1015.65,2029.99,1066.00,1269.34,1419.01,599.95,600.65,46.56,0000 0000 0000 0000 000000
2016-12-16 05:36:04,0.13,12.45,0.00,20.38,25.35,29.23,14.90,54.30,1015.65,2029.99,1065.43,1269.00,1418.67,600.00,600.73,46.61,0000 0000 0000 0000 000000
2016-12-16 05:41:06,0.08,12.45,0.00,20.34,25.33,29.19,14.82,54.42,1015.64,2029.99,1065.00,1268.72,1418.02,600.15,600.95,46.66,0000 0000 0000 0000 000000
2016-12-16 05:46:07,0.17,12.46,0.00,20.32,25.32,29.18,14.83,54.41,1015.64,2029.99,1064.38,1268.05,1417.76,599.86,600.78,46.72,0000 0000 0000 0000 000000
2016-12-16 05:51:08,0.04,12.47,0.00,20.31,25.32,29.17,14.85,54.35,1015.64,2029.99,1064.00,1267.98,1417.05,599.99,600.99,46.77,0000 0000 0000 0000 000000
2016-12-16 05:56:10,0.19,12.47,0.00,20.31,25.31,29.17,14.82,54.38,1015.64,2029.99,1063.44,1267.29,1416.92,599.76,600.70,46.82,0000 0000 0000 0000 000000
2016-12-16 06:01:11,0.07,12.48,0.00,20.31,25.30,29.16,14.83,54.42,1015.64,2029.99,1063.00,1267.00,1416.16,600.18,601.09,46.87,0000 0000 0000 0000 000000
2016-12-16 06:06:12,0.12,12.48,0.00,20.33,25.30,29.16,14.92,54.41,1015.64,2030.00,1062.50,1266.80,1415.99,600.03,600.97,46.92,0000 0000 0000 0000 000000
2016-12-16 06:11:13,0.13,12.49,0.00,20.27,25.30,29.14,14.85,54.38,1015.64,2030.02,1062.00,1266.10,1415.34,599.78,600.94,46.97,0000 0000 0000 0000 000000
2016-12-16 06:16:15,0.10,12.50,0.00,20.29,25.28,29.13,14.85,54.50,1015.64,2030.02,1061.52,1265.97,1415.00,600.17,601.13,47.02,0000 0000 0000 0000 000000
2016-12-16 06:21:16,0.15,12.50,0.00,20.31,25.27,29.12,14.88,54.51,1015.65,2030.00,1061.01,1265.34,1414.44,600.30,601.17,47.07,0000 0000 0000 0000 000000
2016-12-16 06:26:18,0.10,12.51,0.00,20.33,25.27,29.12,14.86,54.42,1015.64,2030.02,1060.56,1265.01,1414.00,599.93,600.79,47.12,0000 0000 0000 0000 000000
2016-12-16 06:31:19,0.07,12.51,0.00,20.32,25.27,29.12,14.75,54.42,1015.64,2030.04,1060.01,1264.88,1413.75,599.85,600.89,47.17,0000 0000 0000 0000 000000
2016-12-16 06:36:20,0.18,12.52,0.00,20.30,25.26,29.10,14.83,54.43,1015.66,2030.04,1059.66,1264.14,1413.04,600.08,601.00,47.22,0000 0000 0000 0000 000000
2016-12-16 06:41:22,0.05,12.53,0.00,20.26,25.25,29.12,14.87,54.50,1015.67,2030.04,1059.02,1264.00,1412.88,600.11,601.11,47.27,0000 0000 0000 0000 000000
2016-12-16 06:46:23,0.20,12.53,0.00,20.27,25.25,29.10,14.86,54.52,1015.65,2030.07,1058.62,1263.52,1412.09,600.13,601.01,47.32,0000 0000 0000 0000 000000
2016-12-16 06:51:24,0.06,12.54,0.00,20.31,25.25,29.11,14.80,54.47,1015.65,2030.08,1058.02,1263.01,1411.95,599.62,600.60,47.37,0000 0000 0000 0000 000000
2016-12-16 06:56:25,0.12,12.54,0.00,20.31,25.24,29.09,14.77,54.42,1015.66,2030.10,1057.67,1262.86,1411.16,600.07,601.01,47.42,0000 0000 0000 0000 000000
2016-12-16 07:01:27,0.13,12.55,0.00,20.31,25.23,29.11,14.87,54.45,1015.66,2030.12,1057.02,1262.11,1410.99,600.09,601.13,47.47,0000 0000 0000 0000 000000
2016-12-16 07:06:28,0.10,12.56,0.00,20.29,25.22,29.12,14.78,54.48,1015.65,2030.08,1056.71,1261.99,1410.32,599.68,600.75,47.52,0000 0000 0000 0000 000000
2016-12-16 07:11:29,0.14,12.56,0.00,20.24,25.22,29.12,14.88,54.52,1015.65,2030.07,1056.03,1261.40,1409.98,600.21,601.25,47.57,0000 0000 0000 0000 000000
2016-12-16 07:16:31,0.14,12.57,0.00,20.28,25.22,29.09,14.83,54.52,1015.67,2030.07,1055.58,1261.00,1409.37,600.28,601.29,47.63,0000 0000 0000 0000 000000
2016-12-16 07:21:32,0.10,12.58,0.00,20.28,25.22,29.10,14.87,54.55,1015.71,2030.09,1055.01,1260.66,1408.99,600.18,601.24,47.68,0000 0000 0000 0000 000000
2016-12-16 07:26:34,0.16,12.58,0.00,20.28,25.22,29.07,14.83,54.51,1015.71,2030.03,1054.48,1260.03,1408.34,599.94,601.06,47.73,0000 0000 0000 0000 000000
2016-12-16 07:31:35,0.04,12.59,0.00,20.24,25.20,29.09,14.87,54.43,1015.78,2030.08,1054.01,1259.95,1408.00,600.03,601.17,47.78,0000 0000 0000 0000 000000
2016-12-16 07:36:36,0.19,12.59,0.00,20.23,25.20,29.09,14.93,54.43,1015.70,2030.12,1053.57,1259.21,1407.67,600.21,601.33,47.83,0000 0000 0000 0000 000000
2016-12-16 07:41:38,0.06,12.60,0.00,20.23,25.20,29.11,14.82,54.44,1015.66,2030.09,1053.01,1258.99,1407.03,600.10,601.25,47.88,0000 0000 0000 0000 000000
2016-12-16 07:46:39,0.18,12.60,0.00,20.18,25.19,29.06,14.82,54.57,1015.67,2030.09,1052.51,1258.53,1406.83,599.81,601.01,47.93,0000 0000 0000 0000 000000
2016-12-16 07:51:40,0.14,12.62,0.00,20.17,25.17,29.06,14.86,54.46,1015.68,2030.36,1052.01,1258.02,1406.08,599.85,601.07,47.98,0000 0000 0000 0000 000000
2016-12-16 07:56:42,0.09,12.62,0.00,20.18,25.17,29.03,14.81,54.53,1015.67,2030.59,1051.67,1257.95,1405.99,600.01,601.28,48.03,0000 0000 0000 0000 000000
2016-12-16 08:01:43,0.18,12.63,0.00,20.17,25.17,29.01,14.82,54.49,1015.66,2030.63,1051.02,1257.22,1405.24,599.94,601.13,48.08,0000 0000 0000 0000 000000
2016-12-16 08:06:44,0.10,12.64,0.00,20.22,25.15,29.01,14.91,54.59,1015.66,2030.80,1050.68,1257.00,1405.00,600.21,601.32,48.13,0000 0000 0000 0000 000000
2016-12-16 08:11:46,0.17,12.64,0.00,20.25,25.15,29.02,14.89,54.51,1015.65,2030.90,1050.02,1256.63,1404.42,600.38,601.42,48.18,0000 0000 0000 0000 000000
2016-12-16 08:16:47,0.10,12.65,0.00,20.20,25.15,29.03,14.90,54.58,1015.65,2030.94,1049.70,1256.03,1404.00,600.07,601.18,48.23,0000 0000 0000 0000 000000
2016-12-16 08:21:48,0.10,12.66,0.00,20.24,25.15,28.99,14.89,54.58,1015.64,2030.96,1049.04,1255.98,1403.60,600.21,601.21,48.28,0000 0000 0000 0000 000000
2016-12-16 08:26:50,0.14,12.66,0.00,20.21,25.14,28.99,14.85,54.48,1015.65,2030.91,1048.79,1255.24,1403.01,600.08,601.20,48.33,0000 0000 0000 0000 000000
2016-12-16 08:31:51,0.12,12.67,0.00,20.17,25.13,29.01,14.83,54.59,1015.65,2030.96,1048.04,1254.99,1402.65,600.03,601.38,48.38,0000 0000 0000 0000 000000
2016-12-16 08:36:53,0.11,12.67,0.00,20.14,25.12,29.01,14.87,54.69,1015.64,2030.95,1047.78,1254.62,1402.03,600.04,601.19,48.43,0000 0000 0000 0000 000000
2016-12-16 08:41:54,0.13,12.68,0.00,20.13,25.12,28.99,14.88,54.58,1015.64,2030.98,1047.05,1254.04,1401.82,600.06,601.38,48.49,0000 0000 0000 0000 000000
2016-12-16 08:46:55,0.07,12.69,0.00,20.11,25.11,28.97,14.87,54.57,1015.64,2030.99,1046.80,1253.95,1401.10,599.87,601.25,48.54,0000 0000 0000 0000 000000
2016-12-16 08:51:57,0.18,12.70,0.00,20.11,25.10,28.96,14.92,54.53,1015.64,2030.98,1046.06,1253.17,1400.87,600.34,601.70,48.59,0000 0000 0000 0000 000000
2016-12-16 08:56:58,0.11,12.70,0.00,20.13,25.10,28.95,14.81,54.52,1015.64,2030.98,1045.67,1252.98,1400.08,600.09,601.42,48.64,0000 0000 0000 0000 000000
2016-12-16 09:02:00,0.14,12.71,0.00,20.13,25.10,28.95,14.84,54.67,1015.66,2030.99,1045.02,1252.38,1399.89,600.00,601.26,48.69,0000 0000 0000 0000 000000
2016-12-16 09:07:01,0.15,12.72,0.00,20.15,25.08,28.95,14.89,54.57,1015.65,2030.98,1044.52,1252.00,1399.10,600.37,601.73,48.74,0000 0000 0000 0000 000000
2016-12-16 09:12:02,0.11,12.72,0.00,20.13,25.07,28.93,14.84,54.65,1015.64,2030.98,1044.00,1251.53,1398.80,599.91,601.19,48.79,0000 0000 0000 0000 000000
2016-12-16 09:17:03,0.17,12.73,0.00,20.10,25.07,28.96,14.89,54.61,1015.65,2030.98,1043.28,1251.01,1398.07,599.79,601.17,48.84,0000 0000 0000 0000 000000
2016-12-16 09:22:05,0.07,12.73,0.00,20.10,25.06,28.95,14.84,54.60,1015.65,2030.99,1042.94,1250.76,1397.76,599.95,601.36,48.89,0000 0000 0000 0000 000000
2016-12-16 09:27:06,0.20,12.75,0.00,20.10,25.05,28.93,14.96,54.61,1015.65,2030.99,1042.17,1250.04,1397.03,600.54,601.74,48.94,0000 0000 0000 0000 000000
2016-12-16 09:32:07,0.06,12.75,0.00,20.10,25.05,28.89,14.87,54.53,1015.64,2030.99,1041.90,1249.91,1396.76,600.03,601.45,48.99,0000 0000 0000 0000 000000
2016-12-16 09:37:09,0.21,12.76,0.00,20.10,25.05,28.95,14.90,54.48,1015.64,2030.99,1041.09,1249.14,1396.03,600.14,601.35,49.04,0000 0000 0000 0000 000000
2016-12-16 09:42:10,0.05,12.76,0.00,20.08,25.04,28.91,14.85,54.50,1015.64,2030.99,1040.82,1249.00,1395.82,600.01,601.47,49.09,0000 0000 0000 0000 000000
2016-12-16 09:47:11,0.20,12.77,0.00,20.06,25.03,28.91,14.90,54.49,1015.64,2030.99,1040.06,1248.44,1395.06,600.20,601.61,49.14,0000 0000 0000 0000 000000
2016-12-16 09:52:12,0.10,12.78,0.00,20.06,25.02,28.89,14.85,54.47,1015.64,2030.99,1039.68,1248.01,1394.81,600.05,601.33,49.19,0000 0000 0000 0000 000000
2016-12-16 09:57:13,0.11,12.78,0.00,20.07,25.02,28.89,14.78,54.38,1015.63,2030.99,1039.03,1247.85,1394.05,599.73,601.18,49.24,0000 0000 0000 0000 000000
2016-12-16 10:02:14,0.17,12.79,0.00,20.11,25.02,28.89,14.78,54.35,1015.64,2031.00,1038.56,1247.09,1393.84,599.97,601.33,49.29,0000 0000 0000 0000 000000
2016-12-16 10:07:15,0.09,12.80,0.00,20.11,25.01,28.88,14.87,54.46,1015.64,2031.00,1038.01,1246.85,1393.08,599.96,601.29,49.35,0000 0000 0000 0000 000000
2016-12-16 10:12:17,0.19,12.80,0.00,20.08,25.00,28.91,14.85,54.43,1015.64,2031.00,1037.39,1246.10,1392.85,600.15,601.58,49.40,0000 0000 0000 0000 000000
2016-12-16 10:17:18,0.06,12.81,0.00,20.06,25.00,28.89,14.87,54.38,1015.63,2031.00,1036.97,1245.97,1392.06,600.02,601.40,49.45,0000 0000 0000 0000 000000
2016-12-16 10:22:19,0.20,12.82,0.00,20.07,25.00,28.89,14.88,54.42,1015.64,2031.00,1036.23,1245.29,1391.84,599.90,601.48,49.50,0000 0000 0000 0000 000000
2016-12-16 10:27:21,0.08,12.83,0.00,20.06,24.99,28.91,14.88,54.53,1015.62,2031.01,1035.87,1245.00,1391.07,600.07,601.47,49.55,0000 0000 0000 0000 000000
2016-12-16 10:32:22,0.19,12.83,0.00,20.04,24.97,28.86,14.84,54.67,1015.51,2031.01,1035.08,1244.51,1390.77,599.81,601.15,49.60,0000 0000 0000 0000 000000
2016-12-16 10:37:23,0.10,12.84,0.00,20.03,24.97,28.86,14.84,54.63,1015.46,2031.02,1034.73,1244.01,1390.05,600.17,601.55,49.65,0000 0000 0000 0000 000000
2016-12-16 10:42:25,0.16,12.85,0.00,20.02,24.97,28.84,14.86,54.54,1015.47,2031.02,1034.03,1243.66,1389.66,600.04,601.44,49.70,0000 0000 0000 0000 000000
2016-12-16 10:47:26,0.15,12.85,0.00,20.04,24.97,28.85,14.84,54.48,1015.25,2031.01,1033.48,1243.03,1389.02,599.77,601.03,49.75,0000 0000 0000 0000 000000
2016-12-16 10:52:28,0.09,12.86,0.00,20.04,24.97,28.84,14.84,54.52,1015.17,2031.01,1032.99,1242.78,1388.59,599.97,601.15,49.80,0000 0000 0000 0000 000000
2016-12-16 10:57:29,0.18,12.87,0.00,20.07,24.97,28.86,14.82,54.46,1015.17,2031.03,1032.32,1242.05,1388.00,599.75,600.93,49.85,0000 0000 0000 0000 000000
2016-12-16 11:02:30,0.08,12.87,0.00,20.04,24.96,28.84,14.88,54.57,1015.18,2031.02,1031.91,1241.92,1387.53,600.11,601.39,49.90,0000 0000 0000 0000 000000
2016-12-16 11:07:31,0.20,12.88,0.00,19.97,24.95,28.85,14.93,54.65,1015.17,2031.03,1031.11,1241.16,1387.00,600.40,601.65,49.95,0000 0000 0000 0000 000000
2016-12-16 11:12:32,0.13,12.89,0.00,20.02,24.95,28.82,14.88,54.55,1015.16,2031.04,1030.62,1240.96,1386.36,600.21,601.45,50.00,0000 0000 0000 0000 000000
2016-12-16 11:17:33,0.14,12.90,0.00,20.04,24.95,28.84,14.81,54.58,1015.15,2031.06,1029.99,1240.21,1385.96,600.03,601.15,50.05,0000 0000 0000 0000 000000
2016-12-16 11:22:35,0.16,12.91,0.00,20.02,24.93,28.84,14.81,54.52,1015.16,2031.05,1029.23,1239.98,1385.19,600.20,601.35,50.10,0000 0000 0000 0000 000000
2016-12-16 11:27:36,0.12,12.91,0.00,19.99,24.92,28.80,14.80,54.51,1015.17,2031.08,1028.89,1239.29,1384.91,599.83,601.12,50.15,0000 0000 0000 0000 000000
2016-12-16 11:32:38,0.16,12.92,0.00,20.02,24.92,28.83,14.82,54.55,1015.22,2031.10,1028.10,1238.99,1384.11,600.01,601.27,50.20,0000 0000 0000 0000 000000
2016-12-16 11:37:39,0.19,12.93,0.00,20.02,24.92,28.80,14.81,54.43,1015.33,2031.14,1027.61,1238.32,1383.77,600.00,601.40,50.26,0000 0000 0000 0000 000000
2016-12-16 11:42:41,0.09,12.94,0.00,20.05,24.92,28.80,14.78,54.52,1015.42,2031.16,1027.01,1238.00,1383.04,599.80,601.14,50.31,0000 0000 0000 0000 000000
2016-12-16 11:47:42,0.24,12.94,0.00,20.06,24.91,28.82,14.87,54.52,1015.46,2031.14,1026.30,1237.37,1382.51,600.07,601.37,50.36,0000 0000 0000 0000 000000
2016-12-16 11:52:43,0.07,12.95,0.00,20.04,24.90,28.81,14.85,54.54,1015.47,2031.15,1025.83,1236.99,1382.00,599.88,601.20,50.41,0000 0000 0000 0000 000000
2016-12-16 11:57:44,0.23,12.96,0.00,20.06,24.90,28.79,14.79,54.48,1015.39,2031.31,1025.07,1236.48,1381.34,600.01,601.35,50.46,0000 0000 0000 0000 000000
2016-12-16 12:02:46,0.10,12.97,0.00,20.03,24.90,28.81,14.83,54.40,1015.34,2031.17,1024.51,1235.99,1380.94,599.96,601.29,50.51,0000 0000 0000 0000 000000
2016-12-16 12:07:47,0.16,12.98,0.00,19.99,24.90,28.81,14.80,54.44,1015.26,2031.14,1023.94,1235.38,1380.13,599.79,601.10,50.56,0000 0000 0000 0000 000000
2016-12-16 12:12:49,0.16,12.99,0.00,20.03,24.90,28.81,14.84,54.49,1015.19,2031.23,1023.12,1235.00,1379.76,600.16,601.41,50.61,0000 0000 0000 0000 000000
2016-12-16 12:17:50,0.16,12.99,0.00,20.00,24.90,28.81,14.79,54.49,1015.17,2031.33,1022.82,1234.40,1379.03,600.01,601.21,50.66,0000 0000 0000 0000 000000
2016-12-16 12:22:51,0.15,13.00,0.00,19.98,24.90,28.80,14.88,54.57,1015.16,2031.35,1022.06,1233.99,1378.49,600.03,601.27,50.71,0000 0000 0000 0000 000000
2016-12-16 12:27:53,0.20,13.01,0.00,19.98,24.89,28.80,14.82,54.73,1015.16,2031.27,1021.44,1233.36,1377.98,599.95,601.14,50.76,0000 0000 0000 0000 000000
2016-12-16 12:32:54,0.11,13.02,0.00,19.98,24.88,28.75,14.88,54.72,1015.17,2031.36,1020.89,1232.97,1377.20,600.09,601.37,50.81,0000 0000 0000 0000 000000
2016-12-16 12:37:55,0.21,13.03,0.00,20.00,24.88,28.72,14.79,54.74,1015.15,2031.47,1020.08,1232.28,1376.85,599.72,600.89,50.86,0000 0000 0000 0000 000000
2016-12-16 12:42:57,0.17,13.04,0.00,20.00,24.88,28.79,14.92,54.81,1015.16,2031.67,1019.67,1232.00,1376.07,600.25,601.55,50.91,0000 0000 0000 0000 000000
2016-12-16 12:47:58,0.14,13.04,0.00,19.99,24.88,28.76,14.83,54.82,1015.18,2031.59,1018.98,1231.37,1375.70,600.02,601.25,50.96,0000 0000 0000 0000 000000
2016-12-16 12:53:00,0.14,13.05,0.00,19.99,24.88,28.77,14.80,54.82,1015.18,2031.68,1018.21,1230.98,1375.00,599.84,601.14,51.01,0000 0000 0000 0000 000000